STARLINK-4258 (53180 NORAD) Tracking and Keplerian Element Data

This shows tracking and keplerian element data for the satellite.

Feedback or suggestion? Click here.




ElementValue
Catalog53180
NameSTARLINK-4258
Epoch Orbit1193
Epoch Day270.25001157
Epoch Year2022
RAAN52.186
Inclination53.2144
Eccentricity0.000432
Argument of Perigee344.2323
Mean Anonmoly131.1327
Mean Motion15.73165131
Decay Rate0.00108289
L11 53180U 22083BA 22270.25001157 .00108289 00000+0 76693-3 0 9997
L22 53180 53.2144 52.1860 0004320 344.2323 131.1327 15.73165131 11935

Live tracking and technical data element details for STARLINK-4258 (NORAD 53180). STARLINK-4258 can be tracked NOW for your location showing map with azimuth and elevation plus other details from your city location.

Track the satellite on the map from your city or location and see movement details for azimuth, elevation, latitude, longitude, range, height, and movement on the map or in text.







IsCatalogInMostPopularTable: catalog: 53180, numindb: 6
Update: records affected: 1



GetName: 53180 STARLINK-4258

Hit Count: updated at: Wed, 28 Sep 2022 21:40:44 GMT